Date String (YYYY-MM-DD hh:mm:ss) UTC,Instrument flags,Ambient pressure (hPa),Sample flow (lpm),Bypass flow (lpm),Sample temperature (°C),Ambient temperature (°C),ASC tube jacket temperature (°C),LED temperature (°C),Box temperature (°C),Sample RH (%),Span deviation,Mass concentration (μg/m³),Mass concentration (μg/m³),Mass concentration (μg/m³)
DateTimeUTC,F1_M11,P_M11,Q1_M11,Q2_M11,T1_M11,T2_M11,T3_M11,T4_M11,T5_M11,U1_M11,ZSPAN_M11,X0_M11,X2_M11,X1_M11
2023-01-30 22:00:00,,0824.4,5.00,0.00,22.8,22.9,00.0,31.6,24.9,04.5,0000.2,0010.35,0007.26,0006.68
2023-01-30 22:01:00,,0824.4,5.02,0.00,22.9,23.1,00.0,31.6,25.0,04.5,0000.2,0010.37,0007.26,0006.68
2023-01-30 22:02:00,,0824.3,4.98,0.00,23.0,22.7,00.0,31.6,24.9,04.4,0000.8,0010.44,0007.28,0006.68
2023-01-30 22:03:00,,0824.3,5.01,0.00,23.0,22.3,00.0,31.7,24.8,04.4,0001.0,0010.52,0007.31,0006.68
2023-01-30 22:04:00,,0824.4,5.00,0.00,22.9,22.0,00.0,31.7,24.8,04.3,0001.0,0010.44,0007.28,0006.67
2023-01-30 22:05:00,,0824.4,4.99,0.00,22.9,21.8,00.0,31.7,24.7,04.3,0000.6,0010.36,0007.23,0006.63
2023-01-30 22:06:00,,0824.4,5.00,0.00,22.9,21.7,00.0,31.7,24.7,04.4,0000.3,0010.34,0007.21,0006.61
2023-01-30 22:07:00,,0824.4,5.00,0.00,22.9,21.6,00.0,31.7,24.7,04.4,0000.5,0010.24,0007.18,0006.61
2023-01-30 22:08:00,,0824.5,5.00,0.00,22.9,21.5,00.0,31.7,24.6,04.4,0000.6,0010.30,0007.20,0006.63
2023-01-30 22:09:00,,0824.5,4.97,0.00,22.9,21.4,00.0,31.7,24.6,04.4,0000.9,0010.33,0007.22,0006.63
2023-01-30 22:10:00,,0824.5,5.00,0.00,22.9,21.3,00.0,31.7,24.6,04.4,0001.1,0010.30,0007.22,0006.63
2023-01-30 22:11:00,,0824.3,5.01,0.00,22.8,21.3,00.0,31.7,24.6,04.5,0001.0,0010.24,0007.19,0006.63
2023-01-30 22:12:00,,0824.3,5.00,0.00,22.8,21.2,00.0,31.7,24.6,04.5,0001.1,0010.26,0007.20,0006.62
2023-01-30 22:13:00,,0824.4,5.02,0.00,22.8,21.2,00.0,31.7,24.5,04.5,0001.0,0010.41,0007.22,0006.62
2023-01-30 22:14:00,,0824.4,4.98,0.00,22.8,21.1,00.0,31.7,24.5,04.5,0001.1,0010.39,0007.19,0006.60
2023-01-30 22:15:00,,0824.4,5.04,0.00,22.8,21.1,00.0,31.7,24.5,04.5,0001.5,0010.58,0007.24,0006.60
2023-01-30 22:16:00,,0824.4,4.98,0.00,22.7,21.1,00.0,31.7,24.4,04.5,0001.8,0010.82,0007.25,0006.59
2023-01-30 22:17:00,,0824.4,5.01,0.00,22.7,21.0,00.0,31.7,24.4,04.5,0001.9,0010.92,0007.28,0006.60
2023-01-30 22:18:00,,0824.5,5.00,0.00,22.7,21.0,00.0,31.6,24.4,04.5,0002.3,0010.93,0007.29,0006.60
2023-01-30 22:19:00,,0824.4,5.02,0.00,22.7,21.1,00.0,31.6,24.4,04.5,0002.4,0010.99,0007.29,0006.58
2023-01-30 22:20:00,,0824.5,5.01,0.00,22.7,21.7,00.0,31.6,24.6,04.6,0002.3,0010.96,0007.28,0006.59
2023-01-30 22:21:00,,0824.4,5.00,0.00,22.8,22.6,00.0,31.6,24.8,04.5,0002.4,0010.99,0007.29,0006.59
2023-01-30 22:22:00,,0824.4,5.00,0.00,22.9,22.7,00.0,31.6,24.9,04.5,0002.3,0011.01,0007.31,0006.59
2023-01-30 22:23:00,,0824.4,4.99,0.00,22.9,22.3,00.0,31.7,24.8,04.5,0001.9,0011.01,0007.31,0006.60
2023-01-30 22:24:00,,0824.6,5.00,0.00,22.9,22.0,00.0,31.7,24.7,04.4,0001.7,0010.89,0007.29,0006.60
2023-01-30 22:25:00,,0824.5,5.01,0.00,22.9,21.8,00.0,31.7,24.6,04.3,0001.5,0010.82,0007.28,0006.61
2023-01-30 22:26:00,,0824.4,5.00,0.00,22.8,21.4,00.0,31.7,24.5,04.4,0001.1,0010.81,0007.26,0006.62
2023-01-30 22:27:00,,0824.5,5.01,0.00,22.8,21.1,00.0,31.7,24.4,04.4,0001.0,0011.36,0007.26,0006.64
2023-01-30 22:28:00,,0824.5,5.00,0.00,22.8,21.0,00.0,31.7,24.4,04.4,0000.7,0011.29,0007.22,0006.63
2023-01-30 22:29:00,,0824.4,4.99,0.00,22.7,21.0,00.0,31.7,24.4,04.5,0000.2,0011.26,0007.20,0006.64
2023-01-30 22:30:00,,0824.6,4.99,0.00,22.7,21.0,00.0,31.6,24.4,04.5,0000.4,0011.59,0007.16,0006.62
2023-01-30 22:31:00,,0824.6,5.02,0.00,22.7,21.0,00.0,31.6,24.4,04.5,0000.4,0012.06,0007.16,0006.60
2023-01-30 22:32:00,,0824.6,5.00,0.00,22.7,21.0,00.0,31.6,24.4,04.5,0000.2,0012.46,0007.18,0006.60
2023-01-30 22:33:00,,0824.6,4.99,0.00,22.7,21.0,00.0,31.6,24.4,04.5,0000.7,0012.72,0007.19,0006.59
2023-01-30 22:34:00,,0824.4,5.00,0.00,22.6,21.0,00.0,31.6,24.4,04.6,0001.0,0012.73,0007.17,0006.57
2023-01-30 22:35:00,,0824.4,5.01,0.00,22.6,21.0,00.0,31.6,24.3,04.6,0001.3,0012.63,0007.12,0006.54
2023-01-30 22:36:00,,0824.5,5.00,0.00,22.6,20.9,00.0,31.6,24.3,04.6,0001.4,0012.60,0007.09,0006.50
2023-01-30 22:37:00,,0824.6,5.01,0.00,22.6,20.9,00.0,31.5,24.3,04.6,0001.2,0012.55,0007.05,0006.46
2023-01-30 22:38:00,,0824.6,5.02,0.00,22.6,21.1,00.0,31.5,24.3,04.6,0001.4,0011.79,0007.00,0006.42
2023-01-30 22:39:00,,0824.6,5.01,0.00,22.7,21.9,00.0,31.5,24.5,04.5,0001.6,0011.73,0006.98,0006.38
2023-01-30 22:40:00,,0824.6,5.00,0.00,22.8,22.8,00.0,31.5,24.8,04.5,0001.6,0011.81,0006.98,0006.35
2023-01-30 22:41:00,,0824.6,4.99,0.00,22.9,23.0,00.0,31.5,24.9,04.5,0001.0,0011.45,0006.98,0006.33
2023-01-30 22:42:00,,0824.4,4.99,0.00,22.9,22.6,00.0,31.6,24.8,04.5,0001.2,0010.96,0006.96,0006.32
2023-01-30 22:43:00,,0824.6,5.03,0.00,22.9,22.3,00.0,31.6,24.7,04.5,0001.2,0010.55,0006.90,0006.28
2023-01-30 22:44:00,,0824.4,4.99,0.00,22.9,22.0,00.0,31.6,24.7,04.5,0001.3,0010.44,0006.86,0006.27
2023-01-30 22:45:00,,0824.5,5.00,0.00,22.9,21.8,00.0,31.6,24.6,04.5,0001.6,0010.79,0006.86,0006.26
2023-01-30 22:46:00,,0824.7,4.99,0.00,22.9,21.6,00.0,31.6,24.6,04.5,0001.2,0010.83,0006.87,0006.27
2023-01-30 22:47:00,,0824.7,5.01,0.00,22.8,21.5,00.0,31.6,24.6,04.5,0001.3,0010.90,0006.88,0006.28
2023-01-30 22:48:00,,0824.7,4.99,0.00,22.8,21.4,00.0,31.7,24.5,04.5,0001.5,0010.89,0006.89,0006.28
2023-01-30 22:49:00,,0824.7,5.03,0.00,22.8,21.3,00.0,31.7,24.5,04.5,0001.5,0010.84,0006.89,0006.30
2023-01-30 22:50:00,,0824.7,5.01,0.00,22.8,21.3,00.0,31.6,24.5,04.5,0001.5,0010.79,0006.88,0006.30
2023-01-30 22:51:00,,0824.7,5.00,0.00,22.8,21.2,00.0,31.6,24.5,04.5,0001.3,0010.82,0006.90,0006.31
2023-01-30 22:52:00,,0824.7,4.99,0.00,22.8,21.2,00.0,31.6,24.5,04.5,0001.7,0010.77,0006.91,0006.31
2023-01-30 22:53:00,,0824.8,5.00,0.00,22.7,21.1,00.0,31.6,24.4,04.5,0001.7,0010.79,0006.92,0006.32
2023-01-30 22:54:00,,0824.9,5.00,0.00,22.7,21.1,00.0,31.6,24.4,04.5,0001.7,0010.78,0006.93,0006.34
2023-01-30 22:55:00,,0824.9,4.98,0.00,22.7,21.1,00.0,31.6,24.4,04.5,0001.3,0011.09,0006.91,0006.33
2023-01-30 22:56:00,,0825.0,4.99,0.00,22.7,21.0,00.0,31.6,24.4,04.5,0001.0,0011.15,0006.89,0006.31
2023-01-30 22:57:00,,0825.0,4.97,0.00,22.7,21.0,00.0,31.6,24.4,04.6,0001.3,0011.20,0006.90,0006.31
2023-01-30 22:58:00,,0824.9,5.01,0.00,22.7,21.3,00.0,31.6,24.5,04.6,0001.5,0011.21,0006.90,0006.29
2023-01-30 22:59:00,,0824.9,4.99,0.00,22.8,22.1,00.0,31.5,24.7,04.5,0001.3,0011.17,0006.86,0006.28
